FW1161 Weather Reports


Display with metric or nautical units.
time (UTC)temp
F
wind
direction
speed
MPH
gust
MPH
rain 1hr
in
rain 24hr
in
rain mn
in
humidity
%
barometer
mb
20260509094506 55 291 0.0 0.0 0.00 0.00 0.00 77 1003.8
20260509093018 55 291 0.0 0.0 0.00 0.00 0.00 76 1004.0
20260509091559 55 291 0.0 0.0 0.00 0.00 0.00 76 1003.9
20260509090013 55 291 0.0 0.0 0.00 0.00 0.00 74 1004.0
20260509084537 55 291 0.0 0.0 0.00 0.00 0.00 74 1004.1
20260509083050 55 291 0.0 0.0 0.00 0.00 0.00 74 1004.1
20260509081516 55 291 0.0 0.0 0.00 0.00 0.00 73 1004.0
20260509080041 55 291 0.0 0.0 0.00 0.00 0.00 73 1004.1
20260509074507 55 291 0.0 0.0 0.00 0.00 0.00 72 1004.3
20260509073030 55 291 0.0 0.0 0.00 0.00 0.00 69 1004.3
20260509071603 56 291 0.0 0.0 0.00 0.00 0.00 68 1004.3
20260509070022 57 291 0.0 0.0 0.00 0.00 0.00 68 1004.5
20260509064542 56 291 0.0 0.0 0.00 0.00 0.00 68 1004.5
20260509063058 56 291 0.0 0.0 0.00 0.00 0.00 67 1004.6
20260509061516 57 291 0.0 0.0 0.00 0.00 0.00 65 1004.7
20260509060104 57 291 0.0 0.0 0.00 0.00 0.00 64 1004.8
20260509054503 58 291 0.0 0.0 0.00 0.00 0.00 64 1004.9
20260509053031 58 291 0.0 0.0 0.00 0.00 0.00 64 1005.1
20260509051558 58 291 0.0 0.0 0.00 0.00 0.00 63 1005.3
20260509050030 59 291 0.0 0.0 0.00 0.00 0.00 63 1005.4
20260509044553 59 291 0.0 0.0 0.00 0.00 0.00 64 1005.2
20260509043019 59 291 0.0 0.0 0.00 0.00 0.00 61 1005.2
20260509041535 60 291 0.0 0.0 0.00 0.00 0.00 59 1005.1
20260509034510 61 291 2.0 3.0 0.00 0.00 0.00 56 1005.3
20260509033045 61 293 0.0 0.0 0.00 0.00 0.00 55 1005.3
20260509031507 61 293 0.0 0.0 0.00 0.00 0.00 54 1005.0
20260509024531 62 292 0.0 2.0 0.00 0.00 0.00 52 1005.1
20260509023106 62 292 0.0 0.0 0.00 0.00 0.00 52 1005.2
20260509021527 62 292 0.0 0.0 0.00 0.00 0.00 50 1005.1
20260509020054 62 293 0.0 3.0 0.00 0.00 0.00 49 1005.0
20260509014513 61 293 0.0 2.0 0.00 0.00 0.00 51 1004.9
20260509013038 60 293 0.0 0.0 0.00 0.00 0.00 54 1004.8
20260509011602 60 292 0.0 0.0 0.00 0.00 0.00 53 1004.7
20260509010029 61 293 0.0 0.0 0.00 0.00 0.00 53 1004.5
20260509004543 61 292 0.0 0.0 0.00 0.00 0.00 53 1004.0
20260509003107 61 293 0.0 0.0 0.00 0.00 0.00 52 1003.7
20260509001531 62 293 0.0 0.0 0.00 0.00 0.00 50 1003.7
20260509000104 62 292 0.0 0.0 0.00 0.00 0.00 48 1003.7
20260508234510 63 292 0.0 0.0 0.00 0.00 0.00 46 1003.6
20260508233030 64 292 0.0 1.0 0.00 0.00 0.00 44 1003.5
20260508231554 64 293 0.0 0.0 0.00 0.00 0.00 44 1003.3
20260508230010 64 292 1.0 4.0 0.00 0.00 0.00 43 1003.3
20260508224533 64 292 1.0 5.0 0.00 0.00 0.00 43 1003.1
20260508223047 64 294 1.0 6.0 0.00 0.00 0.00 42 1003.3
20260508221513 65 281 3.0 8.0 0.00 0.00 0.00 41 1003.2
20260508220040 65 333 2.0 13.0 0.00 0.00 0.00 40 1003.3
20260508214618 66 302 3.0 15.0 0.00 0.00 0.00 39 1003.3
20260508213021 67 306 4.0 9.0 0.00 0.00 0.00 39 1003.2
20260508211532 66 299 4.0 15.0 0.00 0.00 0.00 39 1003.2
20260508210100 65 332 7.0 18.0 0.00 0.00 0.00 39 1003.5
20260508204524 65 323 3.0 11.0 0.00 0.00 0.00 41 1003.4
20260508203054 66 277 5.0 12.0 0.00 0.00 0.00 39 1003.5
20260508201526 65 308 6.0 17.0 0.00 0.00 0.00 39 1003.6
20260508200050 65 273 4.0 16.0 0.00 0.00 0.00 40 1003.6
20260508194509 64 311 6.0 15.0 0.00 0.00 0.00 39 1003.7
20260508193034 65 306 7.0 20.0 0.00 0.00 0.00 38 1003.7
20260508191503 64 326 8.0 22.0 0.00 0.00 0.00 40 1003.8
20260508190035 65 285 6.0 17.0 0.00 0.00 0.00 39 1003.8
20260508184556 65 311 10.0 21.0 0.00 0.00 0.00 37 1003.8
20260508183005 65 251 6.0 11.0 0.00 0.00 0.00 39 1004.0
20260508181537 64 261 7.0 17.0 0.00 0.00 0.00 38 1004.2
20260508180057 63 294 7.0 14.0 0.00 0.00 0.00 40 1004.4
20260508174516 62 309 5.0 10.0 0.00 0.00 0.00 40 1004.6
20260508173039 63 276 3.0 17.0 0.00 0.00 0.00 42 1004.7
20260508171547 63 315 7.0 14.0 0.00 0.00 0.00 42 1004.8
20260508170029 62 315 8.0 20.0 0.00 0.00 0.00 41 1004.8
20260508164543 62 315 7.0 16.0 0.00 0.00 0.00 43 1004.7
20260508163105 61 274 5.0 16.0 0.00 0.00 0.00 43 1005.1
20260508161530 61 287 5.0 11.0 0.00 0.00 0.00 44 1005.5
20260508160037 60 261 6.0 14.0 0.00 0.00 0.00 45 1005.7
20260508154552 60 304 9.0 22.0 0.00 0.00 0.00 42 1006.0
20260508153101 60 318 7.0 12.0 0.00 0.00 0.00 41 1006.0
20260508151506 60 249 1.0 11.0 0.00 0.00 0.00 45 1006.1
20260508150033 58 322 4.0 12.0 0.00 0.00 0.00 45 1006.2
20260508144553 58 259 2.0 9.0 0.00 0.00 0.00 47 1006.2
20260508143021 58 296 5.0 9.0 0.00 0.00 0.00 46 1006.3
20260508141541 57 273 0.0 9.0 0.00 0.00 0.00 50 1006.3
20260508140058 56 318 2.0 5.0 0.00 0.00 0.00 52 1006.4
20260508134519 55 296 2.0 7.0 0.00 0.00 0.00 52 1006.4
20260508133050 55 301 1.0 5.0 0.00 0.00 0.00 56 1006.4
20260508131545 55 288 1.0 6.0 0.00 0.00 0.00 58 1006.5
20260508130001 53 313 1.0 11.0 0.00 0.00 0.00 61 1006.7
20260508124527 53 306 2.0 10.0 0.00 0.00 0.00 66 1006.6
20260508123110 52 324 2.0 6.0 0.00 0.00 0.00 69 1006.7
20260508121527 51 299 2.0 7.0 0.00 0.00 0.00 71 1006.5
20260508120159 50 305 1.0 6.0 0.00 0.00 0.00 74 1006.2
20260508114524 49 289 2.0 5.0 0.00 0.00 0.00 77 1006.1
20260508113050 48 290 0.0 4.0 0.00 0.00 0.00 79 1006.3
20260508111522 47 294 0.0 3.0 0.00 0.00 0.00 81 1006.3
20260508110056 47 296 0.0 3.0 0.00 0.00 0.00 82 1006.1
20260508104510 46 296 0.0 0.0 0.00 0.00 0.00 83 1005.9
20260508103034 45 296 0.0 0.0 0.00 0.00 0.00 85 1005.9
20260508101559 44 296 0.0 0.0 0.00 0.00 0.00 87 1005.7
20260508100025 43 296 0.0 0.0 0.00 0.00 0.00 85 1005.4